This demonstration page uses our WeatherBlox Daily Observations layout. Learn more.

Left ArrowRight Arrow

34.16533, -84.80231

Hourly Observations for August 3, 2019

Temp ( °F °C ) Dew Point ( °F °C ) Humidity (%) Winds ( mph kmh ) Pressure ( in mb ) Visibility ( mi km ) Precip ( " mm )
12:53 am 00:53 Clear 73 22.8 70 21.1 90 90 Calm 30.01 1016 10 16 0.00 0.00
1:53 am 01:53 Clear 74 23.3 69 20.6 85 85 VRB 3 6 30.00 1016 10 16 0.00 0.00
2:53 am 02:53 Clear 73 22.8 69 20.6 87 87 Calm 29.99 1016 10 16 0.00 0.00
3:53 am 03:53 Clear 72 22.2 68 20 87 87 Calm 29.98 1015 10 16 0.00 0.00
4:53 am 04:53 Clear 71 21.7 68 20 90 90 Calm 29.98 1015 10 16 0.00 0.00
5:53 am 05:53 Clear 70 21.1 67 19.4 90 90 Calm 29.98 1015 10 16 0.00 0.00
6:42 am 06:42 Mostly Clear 68 20 67 19.4 96 96 Calm 30.02 1017 7 11 0.00 0.00
6:53 am 06:53 Partly Cloudy with Mist and Fog 68 20 66 18.9 93 93 Calm 30.00 1016 6 10 0.00 0.00
7:03 am 07:03 Mostly Cloudy with Mist and Fog 68 20 66 18.9 93 93 Calm 30.02 1017 5 8 0.00 0.00
7:11 am 07:11 Partly Cloudy with Mist and Fog 69 20.6 66 18.9 90 90 Calm 30.02 1017 5 8 0.00 0.00
7:53 am 07:53 Partly Cloudy 71 21.7 68 20 90 90 Calm 30.01 1016 7 11 0.00 0.00
8:53 am 08:53 Partly Cloudy 76 24.4 70 21.1 82 82 Calm 30.02 1017 10 16 0.00 0.00
9:53 am 09:53 Partly Cloudy 78 25.6 70 21.1 76 76 ESE 3 6 30.01 1016 10 16 0.00 0.00
10:41 am 10:41 Mostly Cloudy 80 26.7 71 21.7 74 74 Calm 30.02 1016 10 16 0.00 0.00
10:53 am 10:53 Mostly Cloudy 82 27.8 71 21.7 69 69 S 5 7 30.01 1016 10 16 0.00 0.00
11:02 am 11:02 Partly Cloudy 82 27.8 71 21.7 69 69 NE 3 6 30.01 1016 10 16 0.00 0.00
11:32 am 11:32 Mostly Cloudy 83 28.3 71 21.7 67 67 Calm 30.01 1016 10 16 0.00 0.00
11:53 am 11:53 Cloudy 84 28.9 71 21.7 65 65 Calm 30.01 1016 10 16 0.00 0.00
12:35 pm 12:35 Partly Cloudy 83 28.3 70 21.1 65 65 Calm 30.01 1016 10 16 0.00 0.00
12:53 pm 12:53 Mostly Cloudy 86 30 70 21.1 59 59 Calm 30.00 1016 10 16 0.00 0.00
1:53 pm 13:53 Partly Cloudy 87 30.6 69 20.6 55 55 SSW 3 6 29.96 1015 10 16 0.00 0.00
2:18 pm 14:18 Partly Cloudy with Nearby Thunderstorms 89 31.7 69 20.6 52 52 VRB 6 9 29.95 1014 10 16 0.00 0.00
2:33 pm 14:33 Partly Cloudy 90 32.2 69 20.6 50 50 VRB 6 9 29.94 1014 10 16 0.00 0.00
2:53 pm 14:53 Mostly Cloudy with Thunderstorms 80 26.7 69 20.6 69 69 NNW 14 22 29.96 1014 8 13 0.01 0.25
2:57 pm 14:57 Cloudy with Thunderstorms 77 25 70 21.1 79 79 NW 7 11 29.97 1015 2 3 0.12 3.05
3:02 pm 15:02 Cloudy with Heavy Rain 74 23.3 71 21.7 91 91 Calm 29.96 1015 1 1 0.21 5.33
3:11 pm 15:11 Cloudy with Light Rain 74 23.3 71 21.7 91 91 VRB 3 6 29.96 1015 2 3 0.23 5.84
3:32 pm 15:32 Cloudy with Light Rain 77 25 73 22.8 88 88 Calm 29.95 1014 7 11 0.28 7.11
3:53 pm 15:53 Cloudy 78 25.6 74 23.3 87 87 Calm 29.94 1014 10 16 0.28 7.11
4:53 pm 16:53 Sunny 85 29.4 74 23.3 70 70 Calm 29.92 1013 10 16 0.00 0.00
5:53 pm 17:53 Sunny 87 30.6 70 21.1 57 57 VRB 3 6 29.92 1013 10 16 0.00 0.00
6:53 pm 18:53 Sunny 86 30 70 21.1 59 59 Calm 29.92 1013 10 16 0.00 0.00
7:53 pm 19:53 Sunny 82 27.8 71 21.7 69 69 VRB 3 6 29.92 1013 10 16 0.00 0.00
8:53 pm 20:53 Clear 77 25 71 21.7 82 82 S 3 6 29.93 1014 10 16 0.00 0.00
9:53 pm 21:53 Clear 76 24.4 71 21.7 85 85 Calm 29.95 1014 10 16 0.00 0.00
10:53 pm 22:53 Clear 75 23.9 72 22.2 90 90 Calm 29.96 1015 10 16 0.00 0.00
11:53 pm 23:53 Partly Cloudy 75 23.9 71 21.7 88 88 Calm 29.97 1015 10 16 0.00 0.00

Powered by AerisWeather